COSMOS 2526

Last updated on June 27, 2019, 3:44 a.m. UTC

1 43432U 18037A   19177.44951319 -.00000338  00000-0  00000+0 0  9990
2 43432   0.0339  81.3020 0000713  37.0989  85.7601  1.00271497  4422
UTC
Height (km)
Latitude
Longitude
Inclination
Orbital Period
UTC large
Height (km)
Speed (km/s)
/
Latitude / Longitude
Inclination (degrees)
Orbital Period (minutes)
Azimuth
Elevation
Range (km)
Doppler Factor
iOS Compass Heading
iOS Angle

Next 30 passes for location: Hong Kong

Rise time Rise Azimuth (degrees) Set time Set Azimuth (degrees) Duration Max altitude (degrees)

No matching passes for this satellites